Find Kosmos-2447

NORAD ID: 33466 Int'l Des: 2008-067 Owner: KVR/IACG Country: RU Constellation: GLONASS operational
MEOCIRCULAR

实时位置

正在加载3D地球...

关于 Kosmos-2447

正在加载描述...

即将过境

Passes for default location (London). Set your location on the main map for personalized predictions.

高度历史

Loading altitude history...

两行轨道根数

1 33466U 08067A 26105.62236551 .00000023 00000-0 00000+0 0 9991
2 33466 64.7841 71.4993 0008578 268.9734 270.0378 2.13107935134639
Epoch: Apr 15, 2026 • Age: 35 hours

当前状态

高度 19128.4 km
速度 3.95 km/s
星下点 -46.16°S, 39.44°E
发射日期 Dec 25, 2008
运行时间 17.3 years
类型 other

技术详情

分类 Payload
质量 1450.00 kg
干质量 1200.00 kg
总质量 1450.00 kg
长度 4.00 m
直径 1.50 m
跨度 7.80 m
形状 Cyl + Ant + 2 Pan
制造商 RESH
平台类型 Uragan
阶段状态 In Orbit
所有者/国家 KVR/IACG/RU

Most Searched